Vertical_Velocity
1 1 2 1 -0 -1 0 -0 -0 -1 -1 -1 -1 -1 -0 1 -1 -0 -1 -1 -0 -1
2 1 1 1 0 0 0 -1 -1 -1 -0 -1 -1 -0 0 1 -0 -0 1 -0 -1 0
2 2 1 0 0 -0 -1 -2 -0 -0 -1 -0 0 0 -0 0 -0 -1 -1 -1 -1 -1
1 2 2 1 -0 -1 -1 -0 -1 -1 -1 -1 -0 -0 -0 -1 -0 -0 0 -1 -0 0
2 2 1 -1 -1 -1 -1 -1 -1 -0 -0 -0 0 0 -0 -1 -1 -1 -1 -0 0 -1
2 1 1 0 -1 -1 -1 -1 -0 -0 0 0 -0 -0 -0 -0 -1 -1 -1 -1 0 -0
-0 -1 -2 -2 -1 -1 -0 0 0 -0 -1 -0 0 0 -0 -1 -1 -1 -1 -0 -0 -1
-1 -1 -1 -1 -1 -1 -1 -1 -2 -2 -1 -1 -1 -0 0 0 0 1 1 1 1 -1
-2 -2 -2 -1 -1 -1 -1 -1 -1 -1 -1 -0 -2 -1 -2 -3 -0 -0 -0 0 1 0
-0 -1 -1 -1 -1 -1 -0 -1 -2 -2 -1 -1 -2 -2 -2 -2 -1 -1 -2 -1 -2 -1
-0 -0 -0 -0 0 0 -0 -1 -0 -1 -2 0 -0 -0 1 1 -1 -1 -0 -2 -2 -4
1 0 -0 -1 -1 -1 -0 -1 0 -1 0 -1 -0 -2 -3 -4 -3 -1 -1 -0 -1 -2
0 -0 -0 -0 -0 -0 -0 0 -0 1 -2 -4 -1 -2 -4 -4 -3 -2 -2 -2 -2 -2
1 0 0 -0 0 0 -0 -1 -2 -3 -2 -4 -5 -2 -3 -4 -4 -3 -3 -2 1 3
Height
3105 3105 3106 3108 3109 3110 3110 3110 3110 3109 3108 3107 3105 3104 3102 3100 3099 3097 3096 3095 3093 3092
3099 3100 3102 3104 3105 3105 3105 3105 3104 3103 3102 3100 3099 3097 3096 3094 3092 3091 3090 3088 3087 3086
3094 3096 3098 3099 3100 3100 3099 3099 3098 3097 3095 3093 3091 3090 3089 3088 3086 3085 3083 3081 3080 3078
3089 3091 3093 3093 3094 3093 3092 3092 3091 3089 3088 3086 3084 3083 3082 3081 3079 3078 3076 3074 3073 3071
3085 3086 3087 3087 3087 3086 3085 3084 3083 3081 3080 3079 3077 3076 3075 3073 3072 3071 3069 3067 3066 3064
3080 3080 3081 3080 3080 3078 3077 3076 3075 3074 3073 3072 3071 3070 3068 3067 3065 3064 3062 3060 3057 3055
3074 3074 3073 3073 3072 3071 3071 3070 3070 3069 3068 3067 3065 3064 3062 3060 3058 3055 3053 3050 3046 3043
3066 3066 3066 3066 3065 3065 3065 3064 3064 3062 3061 3060 3058 3056 3053 3050 3048 3045 3043 3039 3036 3032
3059 3059 3059 3060 3060 3059 3059 3058 3057 3056 3054 3052 3049 3046 3043 3040 3038 3034 3031 3029 3026 3021
3052 3053 3054 3054 3054 3053 3052 3051 3050 3048 3046 3044 3040 3036 3033 3030 3026 3022 3019 3015 3011 3007
3047 3047 3047 3047 3047 3046 3045 3043 3041 3039 3036 3034 3031 3027 3023 3019 3014 3010 3006 3001 2996 2992
3040 3040 3040 3040 3039 3038 3036 3034 3032 3030 3027 3023 3020 3015 3011 3006 3001 2997 2993 2988 2984 2979
3032 3032 3032 3032 3031 3030 3028 3025 3022 3020 3015 3011 3006 3002 2998 2993 2986 2982 2979 2977 2973 2968
3025 3025 3025 3024 3023 3021 3018 3015 3012 3008 3005 3000 2995 2989 2985 2980 2975 2971 2967 2965 2962 2958